Aéroport int. de Vancouver, Colombie-Britannique

Conditions des dernières 24 heures

Date / Heure
(HAP)
Conditions Temp
(°F)
Humidité
(%)
Point de rosée
(°F)
Vent
(mph)
Pression (pouces) Visibilité
(miles)
22 octobre 2014
0:00 Généralement nuageux 58 72 49 SE 28 rafale 38 29.6 12
21 octobre 2014
23:00 Faible averse de pluie 59   71 49 ESE 27 rafale 36 29.6 10
22:00 Faible averse de pluie 57 78 50 ESE 18 rafale 31 29.7 10
21:00 Faible averse de pluie 57 77 50 ESE 21 rafale 31 29.7 10
20:00 Faible averse de pluie 56 80 50 ESE 21 rafale 27 29.7 10
19:00 Pluie faible 56 86 51 ESE 15 rafale 23 29.8 12
18:00 Généralement nuageux 57 82 51 SE 20 rafale 26 29.8 15
17:00 Pluie faible 56 87 52 SE 14 rafale 20 29.8 15
16:00 Généralement nuageux 57 80 51 ESE 14 29.8 15
15:00 Faible averse de pluie 58 81 52 SE 13 rafale 21 29.8 15
14:00 Généralement nuageux 57 82 52 ESE 16 rafale 23 29.8 15
13:00 Généralement nuageux 57 86 52 ESE 17 29.9 15
12:00 Généralement nuageux 56 88 53 SE 16 29.9 15
11:00 Généralement nuageux 58 84 53 SE 13 rafale 19 29.9 15
10:00 Généralement nuageux 56 85 52 SE 11 29.8 15
9:00 Généralement nuageux 54 92 52 ESE 11 29.8 15
8:00 Généralement nuageux 53   94 52 SE 11 29.8 15
7:00 Pluie faible 53   95 52 SE 10 29.8 15
6:00 Généralement nuageux 53   95 52 ESE 9 29.8 15
5:00 Généralement nuageux 54 93 52 ESE 9 29.8 15
4:00 Généralement nuageux 54 95 52 ESE 4 29.8 15
3:00 Pluie faible 54 95 53 E 9 29.8 12
2:00 Pluie faible 55 94 53 ESE 8 29.8 10
1:00 Généralement nuageux 55 94 53 E 10 29.8 15
0:00 Généralement nuageux 56 93 54 E 10 29.8 15
N.D. non disponible
↑ température la plus haute
↓ température la plus basse

Si vous désirez plus de données historiques sur les conditions météo, s.v.p. visitez Données climatologiques en ligne.

Date de modification :